Location: Prague
(50.0830°N, 14.4670°E)
Time: 07:35:44
(UTC+02:00)

DOVE 4 - Pass Details

Date: 09 April 2023
Orbit: 584 x 791 km, 97.8° (Epoch: 29 May)

Event Time Altitude Azimuth Distance (km) Brightness Sun altitude
Rises 00:19:24 0° 11° (N) 3,067 ? -31.7°
Reaches altitude 10° 00:21:44 10° 8° (N) 2,112 ? -31.8°
Enters shadow 00:24:28 34° 355° (N) 1,081 ? -31.9°
